User: anonymous   Login
Location: Unspecified
(0.0000°N, 0.0000°E)
Time: 00:23:42
(UTC+00:00)
Language:

SSETI-EXPRESS - Orbit

View from above orbital plane
View from above orbital plane
View from above satellite
View from above satellite

Ground track
Ground track

The orbit data is extracted from the following two-line orbital elements,

1 28894U 05043E   17231.03548394  .00000060  00000-0  21047-4 0  9997
2 28894  97.8889  25.1315 0016219 324.1274  35.8837 14.61459456629513
Epoch (UTC): 19 August 2017 00:51:05
Eccentricity: 0.0016219
inclination: 97.8889°
perigee height: 677 km
apogee height: 700 km
right ascension of ascending node: 25.1315°
argument of perigee: 324.1274°
revolutions per day: 14.61459456
mean anomaly at epoch: 35.8837°
orbit number at epoch: 62951

The dashed part of the orbit path shows where the satellite is in the earth's shadow,  

DLR